Weather observations for the past three days for
Egegik, Egegik Airport
Metric (Imperial)
Date Time (akdt) Wind (kph) Vis. (km) Weather Sky Cond. Temperature (ºC) Relative Humidity Wind Chill (°C) Heat Index (°C) Pressure Precipitation (cm)
Air Dwpt 6 hour altimeter (cm) sea level (mb) 1 hr 3 hr 6 hr
Max. Min.
21 09:56 NW 11 16.09 Partly Cloudy FEW007 SCT100 11.7 8.3 11.7 8.3 80% 76.07 1014.0
21 08:56 W 9 16.09 Mostly Cloudy FEW003 SCT060 BKN120 10.6 10 96% 76.07 1014.0
21 07:56 NW 7 16.09 Overcast OVC055 9.4 9.4 100% 9 76.07 1014.0
21 06:56 N 6 16.09 Overcast OVC070 8.9 8.9 100% 76.05 1013.8
21 05:56 NW 6 16.09 Light Rain FEW055 OVC085 8.3 8.3 100% 76.05 1013.6
21 04:56 Calm 9.66 Fog/Mist OVC085 8.3 7.8 97% 76.02 1013.4
21 03:56 N 6 16.09 Overcast OVC090 8.3 8.3 10.6 8.3 100% 76.02 1013.4
21 02:56 Calm 16.09 Overcast OVC100 8.3 7.8 97% 76.05 1013.4
21 01:56 Calm 16.09 Overcast OVC095 8.3 7.8 97% 76.02 1013.4
21 00:56 Calm 16.09 Overcast OVC065 8.9 8.3 96% 76.02 1013.3
20 23:56 Calm 16.09 Overcast OVC060 9.4 8.3 93% 76.02 1013.2
20 22:56 NW 6 16.09 Overcast BKN070 OVC080 10 8.9 93% 76 1013.0
20 21:56 NW 7 16.09 Overcast OVC040 10.6 8.9 11.7 10 89% 76 1012.9
20 20:56 NW 6 16.09 Overcast OVC040 11.7 8.9 83% 75.97 1012.8
20 19:56 NW 7 16.09 Overcast OVC042 11.1 8.9 86% 76 1012.8
20 18:56 NW 6 16.09 Overcast FEW008 SCT030 OVC036 11.1 9.4 89% 76 1012.8
20 17:55 Calm 4.83 Light Rain Fog/Mist FEW007 BKN018 OVC026 10.6 9.4 92% 76.02 1013.1
20 16:56 Calm 16.09 Overcast OVC025 10.6 8.3 86% 76.05 1013.4
20 15:56 NW 9 4.83 Fog/Mist OVC023 10.6 8.3 11.7 8.9 86% 76.05 1013.6
20 14:56 NW 7 16.09 Overcast SCT009 BKN014 OVC038 11.7 8.9 83% 76.05 1013.6
20 13:56 NW 9 16.09 Overcast BKN011 OVC020 10.6 8.3 86% 76.07 1013.9
20 12:56 Calm 8.05 Fog/Mist BKN006 OVC011 9.4 8.3 93% 76.1 1014.1
20 11:56 Calm 16.09 Overcast OVC011 10 7.2 83% 76.12 1014.5
20 10:56 SE 9 16.09 Overcast OVC013 9.4 6.7 83% 8 76.15 1014.8
20 09:56 E 7 16.09 Overcast OVC015 8.9 7.2 8.9 7.2 89% 8 76.15 1014.9
20 08:56 E 9 16.09 Overcast OVC017 8.3 6.7 90% 7 76.17 1015.1
20 07:56 E 9 16.09 Overcast OVC017 8.3 6.7 90% 7 76.17 1015.4
20 06:56 SE 17 16.09 Overcast OVC019 7.8 6.1 89% 5 76.2 1015.6
20 05:56 SE 13 16.09 Overcast BKN025 OVC032 7.8 6.7 93% 6 76.2 1015.7
20 04:56 E 7 16.09 Overcast SCT024 OVC037 7.2 6.1 93% 6 76.2 1015.8
20 03:56 SE 11 16.09 Light Rain SCT034 OVC055 7.2 6.1 10 7.2 93% 5 76.25 1016.2
20 02:56 SE 7 16.09 Overcast BKN034 OVC055 7.8 6.1 89% 7 76.25 1016.3
20 01:56 E 7 16.09 Overcast OVC047 7.8 6.7 93% 7 76.25 1016.4
20 00:56 SE 13 16.09 Overcast BKN055 OVC070 8.3 6.7 90% 6 76.25 1016.4
19 23:56 SE 11 16.09 Overcast BKN075 OVC100 8.3 6.7 90% 7 76.28 1016.6
19 22:56 SE 13 16.09 Overcast BKN055 BKN080 OVC110 10 6.7 80% 8 76.25 1016.4
19 21:56 SE 17 16.09 Overcast OVC080 10 6.7 13.3 10 80% 8 76.25 1016.3
19 20:56 SE 22 G 33 16.09 Mostly Cloudy FEW055 BKN080 10.6 6.7 77% 76.23 1016.1
19 19:56 SE 22 G 37 16.09 Overcast FEW029 BKN070 OVC080 11.7 7.2 74% 76.23 1016.0
19 18:56 SE 20 G 33 16.09 Overcast OVC031 12.8 6.7 67% 76.23 1016.1
19 17:56 SE 26 G 37 16.09 Overcast OVC029 12.2 6.7 69% 76.25 1016.3
19 16:56 SE 28 G 37 16.09 Overcast BKN026 OVC032 12.8 6.7 67% 76.25 1016.2
19 15:56 SE 20 G 35 16.09 Overcast BKN024 OVC034 12.8 6.7 13.3 9.4 67% 76.25 1016.2
19 14:56 SE 26 16.09 Overcast SCT023 BKN027 OVC034 12.2 6.7 69% 76.25 1016.2
19 13:56 SE 30 G 39 16.09 Overcast BKN021 BKN034 OVC055 12.2 7.2 72% 76.25 1016.3
19 12:56 SE 26 16.09 Overcast SCT015 BKN027 OVC065 11.1 7.2 77% 76.23 1016.0
19 11:56 SE 35 G 43 16.09 Overcast and Breezy SCT013 OVC060 10.6 7.2 80% 76.23 1015.9
19 10:56 SE 31 G 41 16.09 Overcast OVC050 9.4 7.2 86% 6 76.2 1015.7
19 09:56 SE 30 G 43 16.09 Overcast OVC050 9.4 7.2 9.4 7.2 86% 6 76.17 1015.4 0.03
19 08:56 SE 28 G 35 16.09 Overcast BKN050 OVC065 8.3 6.7 90% 5 76.17 1015.3
19 07:56 SE 24 16.09 Overcast OVC060 7.8 6.7 93% 5 76.17 1015.1
19 06:56 SE 24 16.09 Light Rain OVC060 7.2 6.1 93% 4 76.12 1014.7 0.03
19 05:56 SE 28 G 44 16.09 Light Rain OVC070 7.8 6.1 89% 4 76.1 1014.4
19 04:56 SE 26 G 35 16.09 Light Rain SCT075 OVC110 7.8 6.1 89% 4 76.12 1014.6 0.03
19 03:56 SE 28 G 35 16.09 Light Rain OVC075 7.8 6.1 9.4 7.8 89% 4 76.12 1014.6 0.03
19 02:56 SE 26 G 39 16.09 Light Rain OVC075 7.8 6.1 89% 4 76.12 1014.7 0.03
19 01:56 SE 28 G 37 16.09 Light Rain OVC060 7.8 6.1 89% 4 76.12 1014.5
19 00:56 SE 28 G 37 16.09 Light Rain OVC080 8.3 6.1 86% 5 76.1 1014.3
18 23:56 SE 33 G 43 16.09 Overcast and Breezy OVC080 8.3 5.6 83% 4 76.07 1014.1
18 22:56 SE 31 G 39 16.09 Overcast BKN021 OVC080 8.9 6.7 86% 5 76.05 1013.8
18 21:56 SE 26 16.09 Overcast FEW023 OVC080 9.4 6.7 10.6 9.4 83% 6 76.05 1013.5
18 20:56 SE 28 G 41 16.09 Overcast BKN021 OVC070 10 6.7 80% 7 76.02 1013.3
18 19:56 SE 35 G 46 16.09 Overcast and Breezy BKN025 OVC075 10 7.2 83% 7 76.02 1013.1
18 18:56 SE 44 G 52 16.09 Overcast and Windy OVC023 10 7.2 83% 6 76.02 1013.4
18 17:56 SE 41 G 57 16.09 Overcast and Breezy SCT012 OVC025 10 7.2 83% 6 76.05 1013.6
18 16:56 SE 33 G 50 16.09 Overcast and Breezy BKN012 OVC031 10 7.2 83% 7 76.05 1013.7
18 15:56 SE 39 G 50 16.09 Overcast and Breezy SCT020 OVC029 10 6.1 12.2 8.3 77% 6 76.07 1013.9 0.03
18 14:56 E 37 G 56 16.09 Overcast and Breezy OVC031 10 5.6 74% 6 76.07 1014.0
18 13:56 SE 35 G 52 16.09 Overcast and Breezy BKN036 OVC043 11.1 5.6 69% 76.07 1014.1
18 12:56 SE 35 G 50 16.09 Overcast and Breezy BKN023 BKN029 OVC100 11.7 5.6 66% 76.1 1014.2 0.03
18 11:56 SE 31 G 44 16.09 Light Rain FEW043 BKN060 BKN070 11.1 7.2 77% 76.1 1014.2
18 10:56 SE 24 G 35 16.09 Light Rain FEW048 OVC070 8.9 6.7 86% 6 76.12 1014.7 0.03
Date Time (akdt) Wind (kph) Vis. (km) Weather Sky Cond. Air Dwpt Max. Min. Relative Humidity Wind Chill (°C) Heat Index (°C) altimeter (cm) sea level (mb) 1 hr 3 hr 6 hr
6 hour
Temperature (ºC) Pressure Precipitation (cm)